星链-11113 [DTC] (STARLINK-11113 [DTC] )

导读 | 豆包AI

STARLINK-11113是美国SpaceX公司星链(Starlink)项目的低轨通信卫星,于北京时间2024年6月5日发射入轨,属于星链星座组网的第二代迷你卫星(V2 Mini)。作为星链全球互联网星座的组成部分,该卫星支持高速低延迟宽带通信,具备手机直连相关能力,助力星链实现全球无缝覆盖,为偏远地区、特殊场景提供互联网接入服务,不过星链大规模部署也引发太空轨道安全与天文观测影响等争议。

基本信息
目录编号:
59947
目录名称:
STARLINK-11113
国际标识:
2024-107C
轨道中心:
EARTH
卫星名称:
星链-11113 [DTC]
卫星全名:
星链-11113 [DTC] (STARLINK-11113 [DTC] )
卫星状态:
在轨 (已飞行648 天)
发射日期:
2024-06-05 UTC
国别 :
美国 (US)
星等 :
--
轨道信息
数据来源 国际轨道数据
星历时间: 2026-03-15T10:50:48+0800
12小时前
查看轨道信息
半长轴: 6737.848km
偏心率: 0.0000869
轨道倾角: 53.159°
近地点辐角 97.747°
升交点赤经 224.120°
平近点角 262.365°
近地点: 359.125km
远地点: 360.297km
周期: 91.736分钟
每日圈数: 15.697156
详细信息
固有亮度:
5
最大亮度:
0.3
卫星平台:
Starlink v2.0 mini
覆盖范围:
全球
运营商:
太空探索技术公司
运营商所在国:
美国
制造商(研发单位):
太空探索技术公司
制造商所在国:
美国
使用方式:
暂无
卫星简介
星链(Starlink)计划是由太空探索技术公司(SpaceX)提出的一个巨型低轨卫星互联网星座项目,计划在2019年至2024年间在太空搭建由约1.2万颗卫星组成的“星链”网络,其中1584颗将部署在地球上空550千米处的近地轨道,并从2020年开始工作。该卫星仍在工作。
2D轨道图
3D轨道图
轨道高度分析图
轨道倾角分析图
轨道综合分析图
查看轨道综合分析图